| time (UTC) | temp F | wind direction | speed MPH | gust MPH | rain 1hr in | rain 24hr in | rain mn in | humidity % | barometer mb |
| 20260507193302 | 60 | 96 | 5.0 | 6.0 | 0.00 | 0.06 | 0.06 | 41 | 1009.0 |
| 20260507192757 | 61 | 318 | 5.0 | 11.0 | 0.00 | 0.06 | 0.06 | 41 | 1009.2 |
| 20260507192254 | 61 | 68 | 3.0 | 16.0 | 0.00 | 0.06 | 0.06 | 38 | 1009.3 |
| 20260507191750 | 62 | 38 | 7.0 | 7.0 | 0.00 | 0.06 | 0.06 | 40 | 1009.1 |
| 20260507191247 | 61 | 38 | 5.0 | 15.0 | 0.00 | 0.06 | 0.06 | 39 | 1009.3 |
| 20260507190744 | 60 | 11 | 6.0 | 8.0 | 0.00 | 0.06 | 0.06 | 39 | 1009.2 |
| 20260507190243 | 61 | 218 | 2.0 | 8.0 | 0.00 | 0.06 | 0.06 | 39 | 1009.4 |
| 20260507185741 | 61 | 25 | 7.0 | 9.0 | 0.00 | 0.06 | 0.06 | 39 | 1009.4 |
| 20260507185237 | 60 | 69 | 4.0 | 10.0 | 0.00 | 0.06 | 0.06 | 40 | 1009.5 |
| 20260507184735 | 59 | 174 | 6.0 | 12.0 | 0.00 | 0.06 | 0.06 | 42 | 1009.6 |
| 20260507184233 | 59 | 30 | 3.0 | 12.0 | 0.00 | 0.06 | 0.06 | 39 | 1009.7 |
| 20260507183729 | 59 | 327 | 3.0 | 11.0 | 0.00 | 0.06 | 0.06 | 42 | 1009.6 |
| 20260507183226 | 59 | 143 | 9.0 | 15.0 | 0.00 | 0.06 | 0.06 | 40 | 1009.8 |
| 20260507182724 | 59 | 148 | 2.0 | 16.0 | 0.00 | 0.06 | 0.06 | 41 | 1009.9 |
| 20260507182219 | 59 | 29 | 3.0 | 6.0 | 0.00 | 0.06 | 0.06 | 42 | 1009.9 |
| 20260507181716 | 60 | 142 | 2.0 | 10.0 | 0.00 | 0.06 | 0.06 | 41 | 1009.8 |
| 20260507181212 | 59 | 93 | 4.0 | 6.0 | 0.00 | 0.06 | 0.06 | 42 | 1009.8 |
| 20260507180710 | 60 | 100 | 3.0 | 12.0 | 0.00 | 0.06 | 0.06 | 41 | 1009.9 |
| 20260507180206 | 59 | 93 | 2.0 | 13.0 | 0.00 | 0.06 | 0.06 | 37 | 1010.0 |
| 20260507175701 | 60 | 161 | 4.0 | 10.0 | 0.00 | 0.06 | 0.06 | 38 | 1009.8 |
| 20260507175158 | 59 | 231 | 4.0 | 11.0 | 0.00 | 0.06 | 0.06 | 42 | 1009.9 |
| 20260507174655 | 60 | 177 | 9.0 | 13.0 | 0.00 | 0.06 | 0.06 | 39 | 1010.0 |
| 20260507174153 | 60 | 302 | 3.0 | 12.0 | 0.00 | 0.06 | 0.06 | 39 | 1010.0 |
| 20260507173645 | 59 | 105 | 4.0 | 11.0 | 0.00 | 0.06 | 0.06 | 42 | 1010.2 |
| 20260507173142 | 59 | 344 | 4.0 | 13.0 | 0.00 | 0.06 | 0.06 | 39 | 1010.2 |
| 20260507172638 | 59 | 34 | 6.0 | 12.0 | 0.00 | 0.06 | 0.06 | 39 | 1010.3 |
| 20260507172135 | 58 | 357 | 6.0 | 8.0 | 0.00 | 0.06 | 0.06 | 38 | 1010.2 |
| 20260507171630 | 60 | 355 | 3.0 | 11.0 | 0.00 | 0.06 | 0.06 | 39 | 1010.5 |
| 20260507171127 | 59 | 211 | 2.0 | 11.0 | 0.00 | 0.06 | 0.06 | 44 | 1010.5 |
| 20260507170624 | 58 | 349 | 0.0 | 5.0 | 0.00 | 0.06 | 0.06 | 43 | 1010.2 |
| 20260507170121 | 59 | 16 | 4.0 | 7.0 | 0.00 | 0.06 | 0.06 | 43 | 1010.4 |
| 20260507165617 | 57 | 245 | 0.0 | 15.0 | 0.00 | 0.06 | 0.06 | 43 | 1010.2 |
| 20260507165113 | 59 | 301 | 4.0 | 10.0 | 0.00 | 0.06 | 0.06 | 42 | 1010.3 |
| 20260507164609 | 58 | 50 | 5.0 | 7.0 | 0.00 | 0.06 | 0.06 | 41 | 1010.3 |
| 20260507164106 | 58 | 155 | 5.0 | 8.0 | 0.00 | 0.06 | 0.06 | 40 | 1010.4 |
| 20260507163603 | 56 | 318 | 4.0 | 9.0 | 0.00 | 0.06 | 0.06 | 43 | 1010.3 |
| 20260507163101 | 57 | 122 | 5.0 | 17.0 | 0.00 | 0.06 | 0.06 | 45 | 1010.7 |
| 20260507162556 | 57 | 323 | 2.0 | 14.0 | 0.00 | 0.06 | 0.06 | 43 | 1010.7 |
| 20260507162053 | 58 | 265 | 7.0 | 13.0 | 0.00 | 0.06 | 0.06 | 43 | 1010.8 |
| 20260507161549 | 58 | 16 | 11.0 | 15.0 | 0.00 | 0.06 | 0.06 | 39 | 1010.9 |
| 20260507161046 | 57 | 89 | 2.0 | 7.0 | 0.00 | 0.06 | 0.06 | 42 | 1010.9 |
| 20260507160542 | 57 | 151 | 6.0 | 7.0 | 0.00 | 0.06 | 0.06 | 42 | 1010.9 |
| 20260507160039 | 57 | 108 | 4.0 | 11.0 | 0.00 | 0.06 | 0.06 | 40 | 1011.2 |
| 20260507155534 | 57 | 31 | 2.0 | 10.0 | 0.00 | 0.06 | 0.06 | 42 | 1010.9 |
| 20260507155032 | 57 | 80 | 2.0 | 22.0 | 0.00 | 0.06 | 0.06 | 42 | 1011.2 |
| 20260507154528 | 57 | 21 | 3.0 | 11.0 | 0.00 | 0.06 | 0.06 | 39 | 1011.2 |
| 20260507154026 | 57 | 42 | 6.0 | 15.0 | 0.00 | 0.06 | 0.06 | 42 | 1011.3 |
| 20260507153522 | 57 | 329 | 3.0 | 8.0 | 0.00 | 0.06 | 0.06 | 44 | 1011.2 |
| 20260507153018 | 56 | 118 | 2.0 | 6.0 | 0.00 | 0.06 | 0.06 | 44 | 1011.5 |
| 20260507152514 | 57 | 104 | 9.0 | 19.0 | 0.00 | 0.06 | 0.06 | 39 | 1011.3 |
| 20260507152011 | 56 | 127 | 2.0 | 10.0 | 0.00 | 0.06 | 0.06 | 45 | 1011.4 |
| 20260507151507 | 56 | 151 | 5.0 | 10.0 | 0.00 | 0.06 | 0.06 | 46 | 1011.6 |
| 20260507151004 | 55 | 172 | 1.0 | 10.0 | 0.00 | 0.06 | 0.06 | 46 | 1011.4 |
| 20260507150501 | 56 | 94 | 3.0 | 11.0 | 0.00 | 0.06 | 0.06 | 44 | 1011.4 |
| 20260507145957 | 55 | 343 | 2.0 | 15.0 | 0.00 | 0.06 | 0.06 | 45 | 1011.4 |
| 20260507145453 | 55 | 138 | 3.0 | 11.0 | 0.00 | 0.06 | 0.06 | 47 | 1011.5 |
| 20260507144950 | 55 | 84 | 2.0 | 10.0 | 0.00 | 0.06 | 0.06 | 46 | 1011.3 |
| 20260507144447 | 55 | 140 | 3.0 | 12.0 | 0.00 | 0.06 | 0.06 | 46 | 1011.8 |
| 20260507143944 | 54 | 151 | 11.0 | 14.0 | 0.00 | 0.06 | 0.06 | 45 | 1011.8 |
| 20260507143442 | 55 | 91 | 4.0 | 18.0 | 0.00 | 0.06 | 0.06 | 45 | 1011.6 |
| 20260507142938 | 55 | 97 | 13.0 | 14.0 | 0.00 | 0.06 | 0.06 | 45 | 1011.9 |
| 20260507142434 | 54 | 114 | 2.0 | 12.0 | 0.00 | 0.06 | 0.06 | 47 | 1011.7 |
| 20260507141932 | 55 | 90 | 9.0 | 19.0 | 0.00 | 0.06 | 0.06 | 45 | 1011.7 |
| 20260507141427 | 54 | 106 | 3.0 | 6.0 | 0.00 | 0.06 | 0.06 | 48 | 1011.8 |
| 20260507140924 | 55 | 84 | 7.0 | 11.0 | 0.00 | 0.06 | 0.06 | 47 | 1011.7 |
| 20260507140420 | 53 | 120 | 3.0 | 10.0 | 0.00 | 0.06 | 0.06 | 47 | 1011.7 |
| 20260507135919 | 54 | 109 | 10.0 | 11.0 | 0.00 | 0.06 | 0.06 | 45 | 1011.6 |
| 20260507135415 | 53 | 111 | 6.0 | 14.0 | 0.00 | 0.06 | 0.06 | 47 | 1011.8 |
| 20260507134912 | 54 | 108 | 5.0 | 19.0 | 0.00 | 0.06 | 0.06 | 46 | 1011.7 |
| 20260507134409 | 54 | 102 | 4.0 | 6.0 | 0.00 | 0.06 | 0.06 | 49 | 1011.6 |
| 20260507133905 | 52 | 136 | 6.0 | 11.0 | 0.00 | 0.06 | 0.06 | 51 | 1011.8 |
| 20260507133400 | 53 | 126 | 4.0 | 11.0 | 0.00 | 0.06 | 0.06 | 50 | 1011.8 |
| 20260507132859 | 54 | 123 | 7.0 | 11.0 | 0.00 | 0.06 | 0.06 | 47 | 1011.7 |
| 20260507132355 | 52 | 124 | 2.0 | 10.0 | 0.00 | 0.06 | 0.06 | 56 | 1011.7 |
| 20260507131852 | 52 | 152 | 3.0 | 9.0 | 0.00 | 0.06 | 0.06 | 51 | 1011.6 |
| 20260507131349 | 52 | 36 | 3.0 | 9.0 | 0.00 | 0.06 | 0.06 | 50 | 1011.5 |
| 20260507130846 | 51 | 149 | 4.0 | 11.0 | 0.00 | 0.06 | 0.06 | 54 | 1011.7 |
| 20260507130342 | 51 | 140 | 4.0 | 9.0 | 0.00 | 0.06 | 0.06 | 53 | 1011.5 |
| 20260507125836 | 52 | 124 | 5.0 | 15.0 | 0.00 | 0.06 | 0.06 | 53 | 1011.5 |
| 20260507125333 | 51 | 84 | 2.0 | 7.0 | 0.00 | 0.06 | 0.06 | 56 | 1011.5 |
| 20260507124831 | 51 | 114 | 2.0 | 5.0 | 0.00 | 0.06 | 0.06 | 57 | 1011.7 |
| 20260507124327 | 51 | 132 | 6.0 | 12.0 | 0.00 | 0.06 | 0.06 | 59 | 1011.5 |
| 20260507123826 | 50 | 238 | 2.0 | 7.0 | 0.00 | 0.06 | 0.06 | 63 | 1011.5 |
| 20260507123322 | 50 | 44 | 7.0 | 9.0 | 0.00 | 0.06 | 0.06 | 63 | 1011.4 |
| 20260507122818 | 50 | 264 | 4.0 | 11.0 | 0.00 | 0.06 | 0.06 | 62 | 1011.6 |
| 20260507122314 | 50 | 160 | 7.0 | 8.0 | 0.00 | 0.06 | 0.06 | 65 | 1011.7 |
| 20260507121810 | 50 | 266 | 2.0 | 5.0 | 0.00 | 0.06 | 0.06 | 68 | 1011.5 |
| 20260507121306 | 50 | 138 | 2.0 | 7.0 | 0.00 | 0.06 | 0.06 | 65 | 1011.6 |
| 20260507120803 | 49 | 132 | 0.0 | 10.0 | 0.00 | 0.06 | 0.06 | 67 | 1011.3 |
| 20260507120259 | 48 | 137 | 2.0 | 5.0 | 0.00 | 0.06 | 0.06 | 70 | 1011.4 |
| 20260507115755 | 49 | 58 | 5.0 | 12.0 | 0.00 | 0.06 | 0.06 | 69 | 1011.3 |
| 20260507115251 | 49 | 30 | 2.0 | 4.0 | 0.00 | 0.06 | 0.06 | 76 | 1011.4 |
| 20260507114747 | 48 | 70 | 0.0 | 7.0 | 0.00 | 0.06 | 0.06 | 79 | 1011.4 |
| 20260507114245 | 48 | 61 | 2.0 | 11.0 | 0.00 | 0.06 | 0.06 | 79 | 1011.5 |
| 20260507113742 | 48 | 17 | 4.0 | 11.0 | 0.00 | 0.06 | 0.06 | 80 | 1011.5 |
| 20260507113238 | 48 | 313 | 2.0 | 3.0 | 0.00 | 0.06 | 0.06 | 86 | 1011.4 |
| 20260507112736 | 47 | 101 | 2.0 | 6.0 | 0.00 | 0.06 | 0.06 | 88 | 1011.5 |
| 20260507112233 | 47 | 20 | 2.0 | 5.0 | 0.00 | 0.06 | 0.06 | 91 | 1011.2 |
| 20260507111731 | 46 | 202 | 0.0 | 3.0 | 0.00 | 0.06 | 0.06 | 92 | 1011.2 |
| 20260507111227 | 47 | 189 | 0.0 | 4.0 | 0.00 | 0.06 | 0.06 | 92 | 1011.3 |
| 20260507110723 | 46 | 282 | 1.0 | 5.0 | 0.00 | 0.06 | 0.06 | 92 | 1011.0 |
| 20260507110220 | 46 | 110 | 3.0 | 5.0 | 0.00 | 0.06 | 0.06 | 92 | 1010.9 |
| 20260507105717 | 46 | 114 | 0.0 | 5.0 | 0.00 | 0.06 | 0.06 | 93 | 1010.9 |
| 20260507105213 | 46 | 265 | 0.0 | 7.0 | 0.00 | 0.06 | 0.06 | 93 | 1011.0 |
| 20260507104710 | 47 | 5 | 1.0 | 8.0 | 0.00 | 0.06 | 0.06 | 93 | 1011.0 |
| 20260507104207 | 47 | 349 | 4.0 | 8.0 | 0.00 | 0.06 | 0.06 | 93 | 1010.7 |
| 20260507103703 | 47 | 87 | 2.0 | 6.0 | 0.00 | 0.06 | 0.06 | 92 | 1010.7 |
| 20260507103159 | 47 | 58 | 2.0 | 10.0 | 0.00 | 0.06 | 0.06 | 93 | 1010.4 |
| 20260507102655 | 47 | 67 | 2.0 | 4.0 | 0.00 | 0.06 | 0.06 | 94 | 1010.3 |
| 20260507102152 | 47 | 76 | 2.0 | 5.0 | 0.00 | 0.06 | 0.06 | 95 | 1010.2 |
| 20260507101648 | 47 | 66 | 3.0 | 7.0 | 0.00 | 0.06 | 0.06 | 95 | 1010.3 |
| 20260507101144 | 47 | 135 | 2.0 | 4.0 | 0.00 | 0.06 | 0.06 | 96 | 1010.3 |
| 20260507100641 | 47 | 325 | 0.0 | 4.0 | 0.00 | 0.06 | 0.06 | 96 | 1010.0 |
| 20260507100140 | 47 | 262 | 0.0 | 2.0 | 0.00 | 0.06 | 0.06 | 96 | 1010.2 |
| 20260507095637 | 47 | 100 | 0.0 | 3.0 | 0.00 | 0.06 | 0.06 | 96 | 1009.8 |
| 20260507095134 | 47 | 94 | 5.0 | 7.0 | 0.00 | 0.06 | 0.06 | 97 | 1010.0 |
| 20260507094630 | 47 | 68 | 1.0 | 5.0 | 0.00 | 0.06 | 0.06 | 97 | 1010.2 |
| 20260507094127 | 47 | 233 | 2.0 | 2.0 | 0.00 | 0.06 | 0.06 | 97 | 1010.0 |
| 20260507093624 | 47 | 30 | 2.0 | 3.0 | 0.00 | 0.06 | 0.06 | 97 | 1010.1 |
| 20260507093123 | 47 | 72 | 1.0 | 5.0 | 0.00 | 0.06 | 0.06 | 97 | 1010.0 |
| 20260507092619 | 47 | 213 | 0.0 | 4.0 | 0.00 | 0.06 | 0.06 | 97 | 1009.8 |
| 20260507092116 | 47 | 340 | 2.0 | 3.0 | 0.00 | 0.06 | 0.06 | 97 | 1009.7 |
| 20260507091613 | 47 | 104 | 2.0 | 4.0 | 0.00 | 0.06 | 0.06 | 97 | 1009.8 |
| 20260507091108 | 47 | 31 | 4.0 | 8.0 | 0.00 | 0.06 | 0.06 | 98 | 1009.7 |
| 20260507090604 | 47 | 29 | 2.0 | 5.0 | 0.00 | 0.06 | 0.06 | 98 | 1009.6 |
| 20260507085558 | 47 | 181 | 0.0 | 5.0 | 0.02 | 0.06 | 0.06 | 98 | 1010.0 |
| 20260507085055 | 47 | 358 | 2.0 | 2.0 | 0.05 | 0.06 | 0.06 | 98 | 1010.0 |
| 20260507084551 | 48 | 219 | 2.0 | 3.0 | 0.05 | 0.06 | 0.06 | 98 | 1010.0 |
| 20260507084048 | 48 | 79 | 0.0 | 4.0 | 0.05 | 0.05 | 0.05 | 98 | 1010.0 |
| 20260507083544 | 48 | 95 | 3.0 | 4.0 | 0.07 | 0.05 | 0.05 | 98 | 1010.2 |
| 20260507083037 | 48 | 25 | 3.0 | 5.0 | 0.05 | 0.04 | 0.04 | 98 | 1010.2 |
| 20260507082532 | 48 | 250 | 0.0 | 4.0 | 0.02 | 0.04 | 0.04 | 99 | 1010.1 |
| 20260507082029 | 48 | 83 | 2.0 | 3.0 | 0.02 | 0.04 | 0.04 | 99 | 1009.8 |
| 20260507081525 | 48 | 318 | 1.0 | 4.0 | 0.00 | 0.03 | 0.03 | 99 | 1010.1 |
| 20260507081022 | 48 | 151 | 1.0 | 2.0 | 0.00 | 0.03 | 0.03 | 99 | 1010.0 |
| 20260507080518 | 48 | 351 | 2.0 | 3.0 | 0.02 | 0.03 | 0.03 | 99 | 1010.3 |
| 20260507080015 | 48 | 257 | 0.0 | 3.0 | 0.02 | 0.03 | 0.03 | 99 | 1010.5 |
| 20260507075510 | 48 | 334 | 2.0 | 3.0 | 0.00 | 0.03 | 0.03 | 99 | 1010.5 |
| 20260507075007 | 48 | 100 | 0.0 | 3.0 | 0.00 | 0.03 | 0.03 | 99 | 1010.4 |
| 20260507074503 | 48 | 20 | 2.0 | 3.0 | 0.00 | 0.03 | 0.03 | 99 | 1010.5 |
| 20260507074002 | 48 | 268 | 0.0 | 2.0 | 0.02 | 0.03 | 0.03 | 99 | 1010.5 |
| 20260507073457 | 48 | 189 | 0.0 | 2.0 | 0.02 | 0.03 | 0.03 | 99 | 1010.2 |
| 20260507072954 | 48 | 276 | 0.0 | 3.0 | 0.02 | 0.02 | 0.02 | 99 | 1010.6 |
| 20260507072452 | 49 | 229 | 0.0 | 1.0 | 0.02 | 0.02 | 0.02 | 99 | 1009.9 |
| 20260507071949 | 49 | 257 | 0.0 | 2.0 | 0.00 | 0.02 | 0.02 | 98 | 1010.3 |
| 20260507071446 | 49 | 179 | 1.0 | 3.0 | 0.00 | 0.02 | 0.02 | 98 | 1010.1 |
| 20260507070942 | 49 | 49 | 0.0 | 3.0 | 0.02 | 0.02 | 0.02 | 98 | 1010.2 |
| 20260507070434 | 49 | 26 | 0.0 | 2.0 | 0.02 | 0.02 | 0.02 | 98 | 1010.1 |
| 20260507065931 | 49 | 305 | 0.0 | 2.0 | 0.00 | 0.02 | 0.02 | 98 | 1009.8 |
| 20260507065427 | 49 | 214 | 0.0 | 2.0 | 0.00 | 0.02 | 0.02 | 97 | 1009.8 |
| 20260507064924 | 49 | 218 | 1.0 | 2.0 | 0.02 | 0.02 | 0.02 | 97 | 1009.6 |
| 20260507064422 | 49 | 273 | 3.0 | 3.0 | 0.02 | 0.02 | 0.02 | 97 | 1009.8 |
| 20260507063920 | 49 | 244 | 2.0 | 3.0 | 0.02 | 0.01 | 0.01 | 96 | 1010.0 |
| 20260507063417 | 49 | 90 | 1.0 | 6.0 | 0.05 | 0.01 | 0.01 | 96 | 1009.9 |
| 20260507062914 | 50 | 359 | 2.0 | 3.0 | 0.05 | 0.01 | 0.01 | 96 | 1009.8 |
| 20260507062411 | 50 | 45 | 2.0 | 5.0 | 0.02 | 0.00 | 0.00 | 96 | 1009.6 |
| 20260507061908 | 50 | 12 | 2.0 | 5.0 | 0.00 | 0.00 | 0.00 | 96 | 1009.3 |
| 20260507061406 | 50 | 55 | 0.0 | 2.0 | 0.00 | 0.00 | 0.00 | 96 | 1009.5 |
| 20260507060904 | 50 | 269 | 2.0 | 2.0 | 0.00 | 0.00 | 0.00 | 96 | 1009.4 |
| 20260507060400 | 50 | 12 | 2.0 | 3.0 | 0.00 | 0.00 | 0.00 | 96 | 1009.2 |
| 20260507055852 | 50 | 23 | 0.0 | 2.0 | 0.00 | 0.00 | 0.00 | 95 | 1009.1 |
| 20260507055347 | 50 | 73 | 3.0 | 3.0 | 0.00 | 0.00 | 0.00 | 95 | 1009.4 |
| 20260507054845 | 50 | 110 | 0.0 | 6.0 | 0.00 | 0.00 | 0.00 | 96 | 1009.4 |
| 20260507054340 | 50 | 108 | 2.0 | 3.0 | 0.00 | 0.00 | 0.00 | 96 | 1009.5 |
| 20260507053838 | 50 | 99 | 2.0 | 3.0 | 0.00 | 0.00 | 0.00 | 96 | 1009.7 |
| 20260507053335 | 50 | 23 | 2.0 | 3.0 | 0.00 | 0.00 | 0.00 | 97 | 1009.9 |
| 20260507052834 | 50 | 79 | 1.0 | 2.0 | 0.00 | 0.00 | 0.00 | 97 | 1010.0 |
| 20260507052330 | 50 | 337 | 0.0 | 4.0 | 0.00 | 0.00 | 0.00 | 97 | 1010.1 |
| 20260507051828 | 50 | 149 | 1.0 | 3.0 | 0.00 | 0.00 | 0.00 | 98 | 1010.0 |
| 20260507051326 | 50 | 67 | 1.0 | 4.0 | 0.00 | 0.00 | 0.00 | 99 | 1010.0 |
| 20260507050822 | 50 | 100 | 2.0 | 4.0 | 0.00 | 0.00 | 0.00 | 99 | 1009.7 |
| 20260507050319 | 50 | 97 | 2.0 | 4.0 | 0.00 | 0.00 | 0.00 | 99 | 1010.0 |
| 20260507045816 | 50 | 55 | 0.0 | 2.0 | 0.00 | 0.00 | 0.00 | 99 | 1010.1 |
| 20260507045312 | 51 | 33 | 0.0 | 1.0 | 0.00 | 0.00 | 0.00 | 99 | 1010.2 |
| 20260507044809 | 51 | 355 | 0.0 | 2.0 | 0.00 | 0.00 | 0.00 | 99 | 1010.3 |
| 20260507044306 | 51 | 150 | 1.0 | 2.0 | 0.00 | 0.00 | 0.00 | 99 | 1010.1 |
| 20260507043802 | 51 | 117 | 0.0 | 1.0 | 0.00 | 0.00 | 0.00 | 99 | 1010.1 |
| 20260507043259 | 51 | 171 | 3.0 | 4.0 | 0.00 | 0.00 | 0.00 | 99 | 1010.1 |
| 20260507042755 | 51 | 137 | 0.0 | 1.0 | 0.00 | 0.00 | 0.00 | 99 | 1010.3 |
| 20260507042250 | 51 | 80 | 0.0 | 1.0 | 0.00 | 0.00 | 0.00 | 99 | 1010.0 |
| 20260507041747 | 51 | 12 | 1.0 | 3.0 | 0.00 | 0.00 | 0.00 | 99 | 1010.0 |
| 20260507041243 | 51 | 330 | 0.0 | 1.0 | 0.00 | 0.00 | 0.00 | 99 | 1009.8 |
| 20260507040735 | 51 | 115 | 0.0 | 2.0 | 0.00 | 0.00 | 0.00 | 99 | 1009.8 |
| 20260507040231 | 51 | 121 | 0.0 | 1.0 | 0.00 | 0.00 | 0.00 | 99 | 1009.5 |
| 20260507035727 | 51 | 219 | 0.0 | 1.0 | 0.00 | 0.17 | 0.17 | 99 | 1009.7 |
| 20260507035223 | 51 | 137 | 0.0 | 0.0 | 0.00 | 0.17 | 0.17 | 99 | 1009.8 |
| 20260507034721 | 51 | 72 | 0.0 | 2.0 | 0.00 | 0.17 | 0.17 | 99 | 1009.4 |
| 20260507034218 | 51 | 105 | 0.0 | 1.0 | 0.00 | 0.17 | 0.17 | 99 | 1009.7 |
| 20260507033716 | 52 | 309 | 0.0 | 4.0 | 0.00 | 0.17 | 0.17 | 99 | 1009.7 |
| 20260507033213 | 51 | 302 | 0.0 | 2.0 | 0.00 | 0.17 | 0.17 | 99 | 1009.8 |
| 20260507032710 | 51 | 229 | 0.0 | 1.0 | 0.00 | 0.17 | 0.17 | 99 | 1009.5 |
| 20260507032206 | 51 | 230 | 0.0 | 4.0 | 0.00 | 0.17 | 0.17 | 99 | 1009.9 |
| 20260507031703 | 52 | 250 | 0.0 | 3.0 | 0.00 | 0.17 | 0.17 | 99 | 1009.5 |
| 20260507031200 | 52 | 62 | 0.0 | 6.0 | 0.00 | 0.17 | 0.17 | 99 | 1009.6 |
| 20260507030656 | 52 | 276 | 1.0 | 2.0 | 0.00 | 0.17 | 0.17 | 99 | 1009.7 |
| 20260507030154 | 52 | 15 | 0.0 | 4.0 | 0.00 | 0.17 | 0.17 | 99 | 1009.9 |
| 20260507025651 | 52 | 189 | 0.0 | 4.0 | 0.00 | 0.17 | 0.17 | 99 | 1009.7 |
| 20260507025148 | 52 | 249 | 0.0 | 4.0 | 0.00 | 0.17 | 0.17 | 99 | 1009.6 |
| 20260507024646 | 53 | 61 | 2.0 | 5.0 | 0.00 | 0.17 | 0.17 | 99 | 1009.5 |
| 20260507024143 | 53 | 317 | 2.0 | 5.0 | 0.00 | 0.17 | 0.17 | 99 | 1009.4 |
| 20260507023638 | 53 | 110 | 0.0 | 10.0 | 0.00 | 0.17 | 0.17 | 99 | 1009.5 |
| 20260507023136 | 53 | 356 | 3.0 | 3.0 | 0.00 | 0.17 | 0.17 | 99 | 1009.5 |
| 20260507022633 | 54 | 2 | 2.0 | 4.0 | 0.00 | 0.17 | 0.17 | 99 | 1009.4 |
| 20260507022128 | 54 | 204 | 0.0 | 4.0 | 0.00 | 0.17 | 0.17 | 99 | 1009.5 |
| 20260507021625 | 54 | 314 | 1.0 | 3.0 | 0.00 | 0.17 | 0.17 | 99 | 1009.4 |
| 20260507021120 | 54 | 92 | 2.0 | 4.0 | 0.02 | 0.17 | 0.17 | 99 | 1009.5 |
| 20260507020619 | 54 | 319 | 0.0 | 3.0 | 0.02 | 0.17 | 0.17 | 99 | 1009.4 |
| 20260507020115 | 54 | 282 | 2.0 | 2.0 | 0.02 | 0.17 | 0.17 | 99 | 1009.5 |
| 20260507015614 | 54 | 79 | 0.0 | 3.0 | 0.02 | 0.17 | 0.17 | 99 | 1009.4 |
| 20260507015111 | 54 | 78 | 3.0 | 5.0 | 0.02 | 0.17 | 0.17 | 99 | 1009.3 |
| 20260507014607 | 54 | 98 | 2.0 | 5.0 | 0.05 | 0.17 | 0.17 | 99 | 1009.3 |
| 20260507014103 | 55 | 249 | 1.0 | 4.0 | 0.07 | 0.16 | 0.16 | 99 | 1009.5 |
| 20260507013600 | 55 | 9 | 6.0 | 8.0 | 0.12 | 0.16 | 0.16 | 99 | 1009.3 |
| 20260507013057 | 56 | 53 | 3.0 | 9.0 | 0.05 | 0.15 | 0.15 | 99 | 1008.8 |
| 20260507012554 | 58 | 235 | 5.0 | 13.0 | 0.00 | 0.14 | 0.14 | 99 | 1008.6 |
| 20260507012049 | 59 | 48 | 0.0 | 3.0 | 0.00 | 0.14 | 0.14 | 99 | 1008.5 |
| 20260507011547 | 59 | 1 | 0.0 | 2.0 | 0.00 | 0.14 | 0.14 | 99 | 1008.5 |
| 20260507011038 | 59 | 100 | 1.0 | 2.0 | 0.00 | 0.14 | 0.14 | 99 | 1008.3 |
| 20260507010532 | 60 | 204 | 0.0 | 1.0 | 0.00 | 0.14 | 0.14 | 99 | 1008.2 |
| 20260507010029 | 60 | 220 | 1.0 | 1.0 | 0.00 | 0.14 | 0.14 | 99 | 1008.1 |
| 20260507005527 | 60 | 158 | 1.0 | 2.0 | 0.00 | 0.14 | 0.14 | 99 | 1008.0 |
| 20260507005023 | 60 | 49 | 0.0 | 2.0 | 0.00 | 0.14 | 0.14 | 99 | 1008.1 |
| 20260507004520 | 60 | 325 | 2.0 | 3.0 | 0.00 | 0.14 | 0.14 | 99 | 1007.9 |
| 20260507004018 | 60 | 170 | 1.0 | 2.0 | 0.00 | 0.14 | 0.14 | 99 | 1007.7 |
| 20260507003513 | 60 | 255 | 2.0 | 7.0 | 0.00 | 0.14 | 0.14 | 99 | 1007.8 |
| 20260507003008 | 60 | 305 | 5.0 | 5.0 | 0.00 | 0.14 | 0.14 | 99 | 1007.9 |
| 20260507002505 | 60 | 281 | 1.0 | 4.0 | 0.00 | 0.14 | 0.14 | 99 | 1007.8 |
| 20260507002001 | 60 | 114 | 1.0 | 2.0 | 0.00 | 0.14 | 0.14 | 99 | 1007.8 |
| 20260507001457 | 60 | 255 | 1.0 | 3.0 | 0.00 | 0.14 | 0.14 | 99 | 1007.8 |
| 20260507000955 | 60 | 249 | 0.0 | 2.0 | 0.00 | 0.14 | 0.14 | 99 | 1007.7 |
| 20260507000451 | 60 | 150 | 0.0 | 2.0 | 0.00 | 0.14 | 0.14 | 99 | 1007.7 |
| 20260506235946 | 60 | 264 | 0.0 | 3.0 | 0.00 | 0.14 | 0.14 | 99 | 1007.9 |
| 20260506235444 | 60 | 62 | 0.0 | 2.0 | 0.00 | 0.14 | 0.14 | 99 | 1007.8 |
| 20260506234940 | 60 | 333 | 3.0 | 4.0 | 0.00 | 0.14 | 0.14 | 99 | 1007.8 |
| 20260506234437 | 60 | 328 | 2.0 | 5.0 | 0.00 | 0.14 | 0.14 | 99 | 1007.8 |
| 20260506233935 | 60 | 228 | 0.0 | 3.0 | 0.00 | 0.14 | 0.14 | 99 | 1008.0 |
| 20260506233431 | 60 | 269 | 2.0 | 3.0 | 0.00 | 0.14 | 0.14 | 99 | 1007.8 |
| 20260506232928 | 60 | 230 | 2.0 | 3.0 | 0.00 | 0.14 | 0.14 | 99 | 1007.6 |
| 20260506232424 | 60 | 182 | 0.0 | 4.0 | 0.00 | 0.14 | 0.14 | 99 | 1007.7 |
| 20260506231920 | 60 | 219 | 0.0 | 2.0 | 0.00 | 0.14 | 0.14 | 99 | 1007.8 |
| 20260506231418 | 60 | 236 | 2.0 | 2.0 | 0.00 | 0.14 | 0.14 | 99 | 1007.7 |
| 20260506230915 | 60 | 272 | 1.0 | 3.0 | 0.00 | 0.14 | 0.14 | 99 | 1007.7 |
| 20260506230411 | 60 | 184 | 1.0 | 2.0 | 0.00 | 0.14 | 0.14 | 99 | 1007.4 |
| 20260506225908 | 60 | 305 | 0.0 | 2.0 | 0.00 | 0.14 | 0.14 | 99 | 1007.6 |
| 20260506225405 | 60 | 196 | 1.0 | 3.0 | 0.00 | 0.14 | 0.14 | 99 | 1007.5 |
| 20260506224902 | 60 | 247 | 0.0 | 3.0 | 0.00 | 0.14 | 0.14 | 99 | 1007.7 |
| 20260506224359 | 60 | 265 | 1.0 | 3.0 | 0.00 | 0.14 | 0.14 | 99 | 1007.6 |
| 20260506223855 | 60 | 328 | 0.0 | 6.0 | 0.00 | 0.14 | 0.14 | 99 | 1007.3 |
| 20260506223351 | 60 | 48 | 1.0 | 8.0 | 0.00 | 0.14 | 0.14 | 99 | 1007.6 |
| 20260506222848 | 60 | 295 | 2.0 | 5.0 | 0.00 | 0.14 | 0.14 | 99 | 1007.5 |
| 20260506222344 | 60 | 299 | 1.0 | 4.0 | 0.00 | 0.14 | 0.14 | 99 | 1007.4 |
| 20260506221842 | 60 | 210 | 1.0 | 3.0 | 0.00 | 0.14 | 0.14 | 99 | 1007.5 |
| 20260506221339 | 60 | 275 | 0.0 | 4.0 | 0.02 | 0.14 | 0.14 | 99 | 1007.4 |
| 20260506220836 | 60 | 258 | 1.0 | 4.0 | 0.02 | 0.14 | 0.14 | 99 | 1007.4 |
| 20260506220332 | 60 | 252 | 3.0 | 4.0 | 0.00 | 0.13 | 0.13 | 99 | 1007.4 |
| 20260506215829 | 60 | 254 | 1.0 | 3.0 | 0.00 | 0.13 | 0.13 | 99 | 1007.6 |
| 20260506215324 | 60 | 318 | 1.0 | 2.0 | 0.02 | 0.13 | 0.13 | 99 | 1007.4 |
| 20260506214820 | 60 | 315 | 2.0 | 3.0 | 0.02 | 0.13 | 0.13 | 99 | 1007.7 |
| 20260506214317 | 60 | 308 | 0.0 | 2.0 | 0.02 | 0.13 | 0.13 | 99 | 1007.6 |
| 20260506213816 | 60 | 332 | 2.0 | 3.0 | 0.09 | 0.13 | 0.13 | 99 | 1007.5 |
| 20260506213312 | 60 | 275 | 3.0 | 4.0 | 0.12 | 0.13 | 0.13 | 99 | 1007.4 |
| 20260506212810 | 59 | 269 | 0.0 | 4.0 | 0.07 | 0.11 | 0.11 | 99 | 1007.4 |
| 20260506212307 | 60 | 155 | 0.0 | 1.0 | 0.02 | 0.11 | 0.11 | 99 | 1007.4 |
| 20260506211801 | 60 | 347 | 0.0 | 3.0 | 0.00 | 0.10 | 0.10 | 99 | 1007.6 |
| 20260506211257 | 60 | 241 | 2.0 | 7.0 | 0.00 | 0.10 | 0.10 | 99 | 1007.5 |
| 20260506210754 | 60 | 297 | 3.0 | 5.0 | 0.02 | 0.10 | 0.10 | 99 | 1007.4 |
| 20260506210251 | 60 | 75 | 0.0 | 2.0 | 0.02 | 0.10 | 0.10 | 99 | 1007.4 |
| 20260506205748 | 60 | 249 | 1.0 | 6.0 | 0.00 | 0.10 | 0.10 | 99 | 1007.5 |
| 20260506205244 | 60 | 266 | 0.0 | 4.0 | 0.00 | 0.10 | 0.10 | 99 | 1007.5 |
| 20260506204741 | 60 | 349 | 1.0 | 4.0 | 0.00 | 0.10 | 0.10 | 99 | 1007.7 |
| 20260506204238 | 60 | 254 | 0.0 | 3.0 | 0.00 | 0.10 | 0.10 | 99 | 1007.9 |
| 20260506203736 | 60 | 306 | 2.0 | 5.0 | 0.00 | 0.10 | 0.10 | 99 | 1007.8 |
| 20260506203233 | 60 | 185 | 1.0 | 3.0 | 0.02 | 0.10 | 0.10 | 99 | 1007.7 |
| 20260506202731 | 60 | 303 | 2.0 | 7.0 | 0.02 | 0.09 | 0.09 | 99 | 1007.7 |
| 20260506202227 | 60 | 242 | 2.0 | 5.0 | 0.05 | 0.09 | 0.09 | 99 | 1007.8 |
| 20260506201724 | 60 | 278 | 2.0 | 5.0 | 0.07 | 0.09 | 0.09 | 99 | 1007.8 |
| 20260506201220 | 60 | 296 | 5.0 | 8.0 | 0.07 | 0.09 | 0.09 | 99 | 1007.9 |
| 20260506200717 | 60 | 252 | 1.0 | 4.0 | 0.05 | 0.08 | 0.08 | 99 | 1008.0 |
| 20260506200209 | 59 | 224 | 2.0 | 7.0 | 0.05 | 0.07 | 0.07 | 99 | 1007.9 |
| 20260506195705 | 60 | 277 | 2.0 | 4.0 | 0.05 | 0.07 | 0.07 | 99 | 1008.1 |
| 20260506195201 | 60 | 238 | 2.0 | 4.0 | 0.02 | 0.07 | 0.07 | 99 | 1008.2 |
| 20260506194659 | 60 | 330 | 2.0 | 10.0 | 0.00 | 0.06 | 0.06 | 98 | 1007.9 |
| 20260506194155 | 60 | 327 | 5.0 | 8.0 | 0.00 | 0.06 | 0.06 | 99 | 1008.2 |
| 20260506193653 | 60 | 271 | 2.0 | 4.0 | 0.00 | 0.06 | 0.06 | 99 | 1008.1 |